Stations météo

réclame
Mon MeteoGroup
La Coruna, Espagne (8001): Température de l'air & dewpoint: 19.02.2018 02:00:00 - 25.02.2018 02:00:00 (CET)La Coruna, Espagne (8001): Vitesse du vent: 19.02.2018 02:00:00 - 25.02.2018 02:00:00 (CET)La Coruna, Espagne (8001): Direction du vent: 19.02.2018 02:00:00 - 25.02.2018 02:00:00 (CET)La Coruna, Espagne (8001): reduced air pressure: 19.02.2018 02:00:00 - 25.02.2018 02:00:00 (CET)La Coruna, Espagne (8001): visibility: 19.02.2018 02:00:00 - 25.02.2018 02:00:00 (CET)La Coruna, Espagne (8001): Quantités de précipitations: 19.02.2018 02:00:00 - 25.02.2018 02:00:00 (CET)
Date & Time tt [°C] td [°C] ff [km/h] ff [knt] dd ppp [hPa] vv [km] rr [mm]
25.02.2018 02:00:00 6,2 1,7 5 3 SE 1010,7 11 0,0
25.02.2018 01:00:00 6,7 2,0 5 3 ESE 1010,4 15 -
25.02.2018 00:00:00 7,5 2,0 9 5 ESE 1010,0 11 0,0
24.02.2018 23:00:00 8,1 2,1 11 6 SE 1009,7 11 0,0
24.02.2018 22:00:00 8,7 2,9 11 6 ESE 1009,0 11 -
24.02.2018 21:00:00 9,1 3,7 9 5 E 1008,6 12 0,0
24.02.2018 20:00:00 10,1 4,5 11 6 ENE 1008,1 12 0,0
24.02.2018 19:00:00 11,1 6,0 8 4 NNE 1007,2 11 -
24.02.2018 18:00:00 11,5 5,8 13 7 N 1007,0 13 0,0
24.02.2018 17:00:00 12,0 3,7 15 8 N 1006,9 13 0,0
24.02.2018 16:00:00 12,6 4,0 9 5 N 1006,6 13 -
24.02.2018 15:00:00 12,6 4,8 11 6 N 1006,8 12 0,0
24.02.2018 14:00:00 13,6 1,9 8 4 NE 1007,3 11 0,0
24.02.2018 13:00:00 12,3 1,6 8 4 ESE 1007,5 22 -
24.02.2018 12:00:00 10,7 1,8 8 4 E 1007,7 10 0,0
24.02.2018 11:00:00 8,3 0,3 5 3 ESE 1007,6 10 0,0
24.02.2018 10:00:00 6,5 0,0 11 6 SE 1007,6 22 -
24.02.2018 09:00:00 4,1 -0,3 5 3 SE 1007,5 8 0,0
24.02.2018 08:00:00 4,0 0,0 9 5 SSE 1006,9 8 0,0
24.02.2018 07:00:00 3,8 0,3 9 5 SE 1006,6 8 -
24.02.2018 06:00:00 4,4 0,5 4 2 SE 1006,2 8 0,0
24.02.2018 05:00:00 5,2 0,8 9 5 SE 1006,0 8 0,0
24.02.2018 04:00:00 4,7 1,2 8 4 SSE 1006,1 15 -
24.02.2018 03:00:00 5,3 1,8 8 4 SE 1006,4 8 0,0
24.02.2018 02:00:00 5,5 2,7 8 4 SE 1006,5 7 0,0
24.02.2018 01:00:00 6,4 3,2 5 3 SE 1006,4 15 -
24.02.2018 00:00:00 7,2 3,4 4 2 ESE 1006,8 8 0,0
23.02.2018 23:00:00 8,1 3,4 5 3 E 1006,6 9 0,0
23.02.2018 22:00:00 8,9 3,3 5 3 ESE 1006,4 10 -
23.02.2018 21:00:00 9,5 3,5 5 3 ENE 1006,4 10 0,0
23.02.2018 20:00:00 9,9 3,8 5 3 W 1006,4 9 0,0
23.02.2018 19:00:00 10,7 3,0 8 4 WNW 1006,1 11 -
23.02.2018 18:00:00 11,2 3,0 9 5 WNW 1005,9 11 0,0
23.02.2018 17:00:00 11,6 2,9 11 6 NNW 1006,0 11 0,0
23.02.2018 16:00:00 12,4 2,8 13 7 NNW 1006,4 11 -
23.02.2018 15:00:00 12,5 3,4 13 7 N 1006,9 12 0,0
23.02.2018 14:00:00 13,3 2,2 11 6 N 1007,3 11 0,0
23.02.2018 13:00:00 13,0 1,0 9 5 E 1007,8 25 -
23.02.2018 12:00:00 11,0 -0,8 11 6 SE 1008,3 11 0,0
23.02.2018 11:00:00 9,3 0,5 8 4 SE 1008,6 10 0,0
23.02.2018 10:00:00 6,7 0,8 9 5 ESE 1008,6 25 -
23.02.2018 09:00:00 4,7 0,3 13 7 SE 1008,3 8 0,0
23.02.2018 08:00:00 4,4 0,2 15 8 SE 1008,4 8 0,0
23.02.2018 07:00:00 4,8 0,2 11 6 ESE 1008,5 8 -
23.02.2018 06:00:00 4,5 0,1 5 3 ESE 1008,7 8 0,0
23.02.2018 05:00:00 4,7 0,6 8 4 ESE 1008,7 8 0,0
23.02.2018 04:00:00 5,1 0,8 9 5 SSE 1009,1 12 -
23.02.2018 03:00:00 5,6 0,9 5 3 ESE 1009,3 7 0,0
23.02.2018 02:00:00 6,0 1,3 8 4 ESE 1010,0 9 0,0
23.02.2018 01:00:00 6,2 1,3 5 3 ESE 1010,6 15 -
23.02.2018 00:00:00 6,7 1,6 5 3 ESE 1010,9 8 0,0
22.02.2018 23:00:00 7,3 1,8 8 4 E 1011,2 9 0,0
22.02.2018 22:00:00 7,6 2,1 11 6 E 1011,3 9 -
22.02.2018 21:00:00 8,0 2,4 13 7 ENE 1011,4 9 0,0
22.02.2018 20:00:00 9,1 2,9 11 6 ENE 1011,4 9 0,0
22.02.2018 19:00:00 10,1 3,1 15 8 ENE 1011,2 10 -
22.02.2018 18:00:00 10,9 2,7 24 13 ENE 1010,9 11 0,0
22.02.2018 17:00:00 11,8 2,3 22 12 NE 1011,2 11 0,0
22.02.2018 16:00:00 13,1 1,7 16 9 NE 1011,7 12 -
22.02.2018 15:00:00 12,7 1,4 9 5 N 1012,3 12 0,0
22.02.2018 14:00:00 12,6 1,0 11 6 N 1013,0 11 0,0
22.02.2018 13:00:00 12,1 -0,4 9 5 E 1013,7 22 -
22.02.2018 12:00:00 10,6 -0,6 13 7 E 1014,0 11 0,0
22.02.2018 11:00:00 9,3 0,7 8 4 E 1014,6 11 0,0
22.02.2018 10:00:00 7,9 -0,3 8 4 E 1014,8 20 -
22.02.2018 09:00:00 5,5 -0,6 5 3 SE 1014,7 10 0,0
22.02.2018 08:00:00 5,5 -1,0 8 4 SE 1014,3 15 0,0
22.02.2018 07:00:00 5,8 -0,3 8 4 ESE 1014,2 16 -
22.02.2018 06:00:00 6,6 -0,2 13 7 E 1014,1 15 0,0
22.02.2018 05:00:00 7,2 0,2 15 8 E 1014,1 14 0,0
22.02.2018 04:00:00 7,7 1,3 16 9 E 1014,8 15 -
22.02.2018 03:00:00 8,2 1,8 24 13 ENE 1015,1 14 0,0
22.02.2018 02:00:00 8,8 1,9 22 12 ENE 1015,8 14 0,0
22.02.2018 01:00:00 9,3 4,3 16 9 E 1015,7 15 -
22.02.2018 00:00:00 9,4 4,6 18 10 ENE 1016,1 14 0,0
21.02.2018 23:00:00 9,6 4,4 21 11 ENE 1016,6 14 0,0
21.02.2018 22:00:00 9,5 4,9 16 9 ENE 1017,0 14 -
21.02.2018 21:00:00 9,4 4,6 21 11 ENE 1017,0 13 0,0
21.02.2018 20:00:00 9,8 4,8 24 13 ENE 1017,2 13 0,0
21.02.2018 19:00:00 10,1 4,7 18 10 ENE 1017,2 14 -
21.02.2018 18:00:00 10,5 4,6 29 16 ENE 1017,0 13 0,0
21.02.2018 17:00:00 11,1 5,2 28 15 ENE 1017,0 13 0,0
21.02.2018 16:00:00 12,8 3,2 18 10 E 1017,4 15 -
21.02.2018 15:00:00 12,9 3,3 18 10 E 1018,2 15 0,0
21.02.2018 14:00:00 11,9 3,6 26 14 NE 1018,8 14 0,0
21.02.2018 13:00:00 12,1 2,5 28 15 NE 1019,6 15 -
21.02.2018 12:00:00 11,4 2,4 26 14 ENE 1020,2 13 0,0
21.02.2018 11:00:00 10,8 3,3 28 15 ENE 1020,5 12 0,0
21.02.2018 10:00:00 10,3 3,3 21 11 NE 1020,5 15 -
21.02.2018 09:00:00 9,2 3,0 18 10 NE 1020,3 12 0,0
21.02.2018 08:00:00 9,1 3,3 18 10 ENE 1020,4 11 0,0
21.02.2018 07:00:00 9,2 3,6 18 10 ENE 1020,9 11 -
21.02.2018 06:00:00 9,1 3,9 18 10 NE 1021,3 11 0,0
21.02.2018 05:00:00 9,4 4,6 22 12 NE 1021,7 11 0,0
21.02.2018 04:00:00 9,7 5,1 21 11 NE 1022,3 15 -
21.02.2018 03:00:00 10,2 6,5 21 11 NE 1022,9 10 0,0
21.02.2018 02:00:00 10,6 7,7 15 8 NE 1023,2 10 0,0
21.02.2018 01:00:00 10,6 7,3 21 11 NE 1023,6 15 -
21.02.2018 00:00:00 10,6 7,5 16 9 NE 1024,0 12 0,0
20.02.2018 23:00:00 10,5 8,4 16 9 NNE 1024,3 9 0,0
20.02.2018 22:00:00 10,5 8,9 11 6 NE 1024,4 10 -
20.02.2018 21:00:00 10,9 9,3 13 7 ENE 1024,7 9 0,0
20.02.2018 20:00:00 11,7 9,6 18 10 NNE 1024,8 - 0,0
20.02.2018 19:00:00 12,4 9,2 13 7 NNE 1024,4 9 -
20.02.2018 18:00:00 12,7 7,8 22 12 ENE 1024,2 14 0,0
20.02.2018 17:00:00 13,0 7,2 16 9 ENE 1024,3 14 0,0
20.02.2018 16:00:00 12,6 9,4 21 11 NE 1024,6 9 -
20.02.2018 15:00:00 12,6 9,6 18 10 NNE 1024,9 8 0,0
20.02.2018 14:00:00 13,5 9,5 18 10 N 1025,4 11 0,0
20.02.2018 13:00:00 13,7 8,1 15 8 NNE 1025,8 22 -
20.02.2018 12:00:00 11,9 7,8 13 7 ENE 1026,2 11 0,0
20.02.2018 11:00:00 11,7 8,4 11 6 NE 1026,3 10 0,0
20.02.2018 10:00:00 11,1 8,5 11 6 NE 1026,2 18 -
20.02.2018 09:00:00 10,6 8,5 13 7 NE 1025,6 9 0,0
20.02.2018 08:00:00 10,8 8,9 15 8 NNE 1025,3 7 0,0
20.02.2018 07:00:00 10,8 9,2 15 8 NE 1025,2 6 -
20.02.2018 06:00:00 10,3 8,7 8 4 NNE 1025,4 - 0,0
20.02.2018 05:00:00 10,5 8,9 8 4 NE 1025,6 7 0,0
20.02.2018 04:00:00 10,9 9,0 5 3 E 1025,8 15 -
20.02.2018 03:00:00 11,1 9,4 13 7 NE 1025,9 7 0,0
20.02.2018 02:00:00 11,1 9,2 13 7 NE 1026,0 8 0,0
20.02.2018 01:00:00 11,3 9,4 13 7 NE 1025,9 15 -
20.02.2018 00:00:00 11,2 9,5 13 7 NE 1025,6 7 0,0
19.02.2018 23:00:00 11,3 9,4 13 7 NE 1025,7 8 0,0
19.02.2018 22:00:00 11,6 9,5 13 7 NNE 1025,7 8 -
19.02.2018 21:00:00 11,6 9,7 15 8 NNE 1025,6 8 0,0
19.02.2018 20:00:00 11,5 9,6 11 6 N 1025,6 8 0,0
19.02.2018 19:00:00 11,6 9,3 18 10 N 1025,1 10 -
19.02.2018 18:00:00 12,0 9,6 18 10 N 1025,0 10 0,0
19.02.2018 17:00:00 12,1 9,5 18 10 N 1024,9 10 0,0
19.02.2018 16:00:00 12,6 9,6 13 7 N 1025,0 11 -
19.02.2018 15:00:00 12,9 9,9 15 8 N 1025,1 12 0,0
19.02.2018 14:00:00 13,3 9,9 13 7 N 1025,4 11 0,0
19.02.2018 13:00:00 12,8 10,3 11 6 N 1025,6 18 -
19.02.2018 12:00:00 11,8 10,2 5 3 N 1025,7 8 0,0
19.02.2018 11:00:00 11,1 10,0 5 3 NNW 1025,5 6 0,0
19.02.2018 10:00:00 10,6 9,8 2 1 N 1025,4 12 -
19.02.2018 09:00:00 9,9 9,1 0 0 N 1025,4 - 0,0
19.02.2018 08:00:00 10,0 9,2 2 1 ESE 1024,9 4,4 0,0
19.02.2018 07:00:00 10,0 9,2 0 0 N 1024,9 5 -
19.02.2018 06:00:00 10,0 9,1 2 1 ESE 1024,8 - 0,0
19.02.2018 05:00:00 10,3 9,5 2 1 NW 1024,7 3,6 0,0
19.02.2018 04:00:00 10,3 9,4 2 1 ESE 1024,8 10 -
19.02.2018 03:00:00 10,2 9,3 4 2 NW 1025,4 2,9 0,0
19.02.2018 02:00:00 10,3 9,1 4 2 NW 1025,4 4,7 0,0

tt = Température de l'air
td = dewpoint
ff = Vitesse du vent
dd = Direction du vent
ppp = reduced air pressure
vv = visibility
rr = Quantités de précipitations

stations d'obs. à proximité